Tracking 27122 objects as of 26-Mar-2023
HD Live streaming from Space Station
objects crossing your sky now

DIRECTV 3 (DBS/NIMIQ 3)

Track DIRECTV 3 (DBS/NIMIQ 3) now!
DIRECTV 3 (DBS/NIMIQ 3) is classified as:


NORAD ID: 23598
Int'l Code: 1995-029A
Perigee: 36,129.9 km
Apogee: 36,178.1 km
Inclination: 9.9 °
Period: 1,454.5 minutes
Semi major axis: 42525 km
RCS: 31.8223 m2 (large)
Launch date: June 10, 1995
Source: United States (US)
Launch site: FRENCH GUIANA (FRGUI)

On-orbit backup; high resolution TV broadcast; USA and Western Hemispheric countries; 30 TV channels.
Your satellite tracking list
Your tracking list is empty




NASA's NSSDC Master Catalog

Two Line Element Set (TLE):
1 23598U 95029A   23084.53534878  .00000009  00000-0  00000-0 0  9991
2 23598   9.9372  43.5510 0005663 353.9523 234.9877  0.99000189101083
Source of the keplerian elements: AFSPC